TimeEST,TemperatureF,Dew PointF,Humidity,Sea Level PressureIn,VisibilityMPH,Wind Direction,Wind SpeedMPH,Gust SpeedMPH,PrecipitationIn,Events,Conditions,WindDirDegrees,DateUTC
12:51 AM,37.0,28.0,70,30.48,10.0,WSW,4.6,-,N/A,,Clear,250,2013-01-10 05:51:00
1:51 AM,32.0,27.0,82,30.50,10.0,SW,5.8,-,N/A,,Clear,220,2013-01-10 06:51:00
2:51 AM,32.0,26.1,79,30.52,10.0,SW,4.6,-,N/A,,Clear,230,2013-01-10 07:51:00
3:51 AM,32.0,26.6,80,30.50,10.0,SW,4.6,-,N/A,,Clear,220,2013-01-10 08:51:00
4:51 AM,28.4,26.6,93,30.50,10.0,SW,3.5,-,N/A,,Clear,220,2013-01-10 09:51:00
5:51 AM,28.0,26.1,92,30.52,10.0,South,3.5,-,N/A,,Clear,180,2013-01-10 10:51:00
6:51 AM,28.4,24.8,86,30.55,9.0,South,4.6,-,N/A,,Clear,170,2013-01-10 11:51:00
7:51 AM,28.0,26.1,92,30.61,7.0,South,3.5,-,N/A,,Clear,170,2013-01-10 12:51:00
8:51 AM,30.0,27.0,88,30.62,7.0,Calm,Calm,-,N/A,,Clear,0,2013-01-10 13:51:00
9:51 AM,34.0,28.9,82,30.63,9.0,South,4.6,-,N/A,,Clear,190,2013-01-10 14:51:00
10:51 AM,37.0,30.0,76,30.62,10.0,Calm,Calm,-,N/A,,Clear,0,2013-01-10 15:51:00
11:51 AM,39.0,30.0,70,30.60,10.0,Calm,Calm,-,N/A,,Clear,0,2013-01-10 16:51:00
12:51 PM,39.9,28.0,63,30.56,10.0,NE,3.5,-,N/A,,Clear,40,2013-01-10 17:51:00
1:51 PM,39.9,30.0,68,30.54,10.0,Calm,Calm,-,N/A,,Clear,0,2013-01-10 18:51:00
2:51 PM,39.0,30.0,70,30.53,10.0,NE,4.6,-,N/A,,Clear,40,2013-01-10 19:51:00
3:51 PM,39.0,30.0,70,30.52,10.0,ENE,5.8,-,N/A,,Clear,60,2013-01-10 20:51:00
4:51 PM,37.0,30.0,76,30.50,10.0,NE,3.5,-,N/A,,Clear,50,2013-01-10 21:51:00
5:51 PM,36.0,30.0,79,30.50,10.0,ENE,4.6,-,N/A,,Clear,60,2013-01-10 22:51:00
6:51 PM,35.1,30.0,82,30.49,10.0,ENE,4.6,-,N/A,,Clear,70,2013-01-10 23:51:00
7:51 PM,36.0,28.9,76,30.45,10.0,East,6.9,-,N/A,,Clear,80,2013-01-11 00:51:00
8:51 PM,37.9,27.0,65,30.43,10.0,Calm,Calm,-,N/A,,Clear,0,2013-01-11 01:51:00
9:51 PM,39.9,26.1,58,30.40,10.0,SE,6.9,-,N/A,,Clear,130,2013-01-11 02:51:00
10:51 PM,39.9,25.0,55,30.34,10.0,Variable,3.5,-,N/A,,Clear,0,2013-01-11 03:51:00
11:51 PM,43.0,21.9,43,30.30,10.0,SE,12.7,18.4,N/A,,Overcast,140,2013-01-11 04:51:00